{"data":{"norad_id":65945,"epoch":"2026-05-25T03:30:26.921952Z","epoch_age_seconds":62284,"freshness":"FRESH","line1":"1 65945U 25227A   26145.14614493  .00004583  00000+0  19041-3 0  9994","line2":"2 65945  80.0027 165.0773 0009038 254.0848 105.9385 15.23636440 34044","mean_motion":15.2363644,"eccentricity":0.0009038,"inclination_deg":80.0027,"raan_deg":165.0773,"arg_perigee_deg":254.0848,"mean_anomaly_deg":105.9385,"bstar":0.00019041,"rev_number":3404,"period_min":94.510735119987,"perigee_km":488.67115995262,"apogee_km":501.09483089635,"semimajor_km":6873.0199954245,"source":"CELESTRAK","updated_at":"2026-05-25T13:38:05.843627Z"}}